Meteopurmerend
purmerend
Purmerend - Baaienwijk



My webcam  My webcam


Onweer radar Meer informatie blitzortung!


Regen radar Meer informatie rain snow radar


Bezoek onze andere website:

CandyAppleRed WebdesignWebdesign Purmerend Candy Apple Red

MeteopurmerendBlog

Template documentation
and downloads



Het weer levert geen direct gevaar op.    Er zijn geen waarschuwingen afgegeven.

15 daagse weersverwachting Norwich (GB)

  • Overzicht
  • Per uur
  • 15 dagen
  • Extra
  • Vergelijk
  • Kaarten
  • Dagkaart
  • Meer »
  • Info
  • Statistieken
  • Directe link
    Temp 6h Neerslag Wind  
 07:01     18:28    Daglengte: 11:27 Morgen
01:00
 
2
07:00
10°
 
5
13:00
14°
0.2 mm
7
19:00
14°
0.8 mm
6
 07:02     18:25    Daglengte: 11:23 Zaterdag 03 Okt
01:00
15°
5.0 mm
6
07:00
14°
14.8 mm
5
13:00
14°
31.7 mm
5
19:00
12°
20.5 mm
4
 07:04     18:23    Daglengte: 11:19 Zondag 04 Okt
01:00
11°
 
4
07:00
10°
18.7 mm
4
13:00
13°
25.3 mm
6
Locatie info
Region: England
Latitude: 52.6225°N
Longitude: 1.2949°E
19 masl
Postcode: NR1 3
Temp/Neerslag /Baro Onweer/Dauwpunt
    Temp Baro 1h Neerslag Dauwpunt Wind UV Bewolking  
 06:59     18:30    Daglengte: 11:31 Vandaag
20:00
Voelt als: 8.9°
996.1 hPa
48%
8.5°
2
Windvlaag: 0.7 m/s
46%
21:00
Voelt als: 8.0°
996.0 hPa
14%
8.0°
2
Windvlaag: 0.8 m/s
48%
22:00
Voelt als: 7.9°
995.8 hPa
14%
8.0°
2
Windvlaag: 0.8 m/s
39%
23:00
Voelt als: 7.4°
995.4 hPa
14%
7.5°
2
Windvlaag: 0.8 m/s
41%
 07:01     18:28    Daglengte: 11:27 Morgen
00:00
Voelt als: 6.8°
994.8 hPa
15%
7.0°
2
Windvlaag: 0.6 m/s
8%
01:00
Voelt als: 6.4°
994.3 hPa
14%
6.5°
2
Windvlaag: 0.5 m/s
39%
02:00
Voelt als: 6.5°
994.0 hPa
14%
6.5°
2
Windvlaag: -0.1 m/s
53%
03:00
Voelt als: 6.6°
993.5 hPa
14%
6.4°
3
Windvlaag: -0.1 m/s
58%
04:00
Voelt als: 6.9°
993.0 hPa
14%
6.4°
3
Windvlaag: 0 m/s
55%
05:00
Voelt als: 7.2°
992.6 hPa
14%
6.7°
4
Windvlaag: 0.8 m/s
45%
06:00
10°
Voelt als: 7.5°
992.5 hPa
14%
6.9°
4
Windvlaag: 1.1 m/s
72%
07:00
10°
992.5 hPa
14%
7.3°
5
Windvlaag: 1.5 m/s
76%
08:00
11°
992.6 hPa
14%
7.9°
6
Windvlaag: 1.1 m/s
85%
09:00
13°
992.7 hPa
14%
8.6°
6
Windvlaag: 0.7 m/s
87%
10:00
13°
992.5 hPa
14%
9.2°
7
Windvlaag: 0.9 m/s
90%
11:00
14°
992.7 hPa 0.2 mm
14%
9.2°
8
Windvlaag: 1.8 m/s
90%
12:00
14°
992.8 hPa
14%
9.5°
8
Windvlaag: 1.6 m/s
87%
13:00
14°
992.9 hPa
15%
10.3°
7
Windvlaag: 1.5 m/s
87%
14:00
14°
992.7 hPa 0.2 mm
17%
10.6°
7
Windvlaag: 1.8 m/s
91%
15:00
14°
992.6 hPa
75%
10.7°
7
Windvlaag: 1.8 m/s
90%
16:00
14°
992.2 hPa
82%
10.8°
7
Windvlaag: -0.7 m/s
88%
17:00
14°
992.8 hPa 0.1 mm
78%
10.7°
7
Windvlaag: 0.5 m/s
91%
18:00
14°
992.9 hPa 0.3 mm
82%
10.9°
6
Windvlaag: 0.1 m/s
91%
19:00
14°
993.0 hPa 0.2 mm
82%
11.3°
6
Windvlaag: -0.4 m/s
91%
20:00
14°
993.0 hPa 0.4 mm
82%
11.8°
6
Windvlaag: -0.2 m/s
91%
21:00
14°
992.7 hPa 0.6 mm
82%
12.3°
6
Windvlaag: -0.6 m/s
91%
22:00
14°
992.2 hPa 1.1 mm
82%
12.7°
5
Windvlaag: -0.5 m/s
91%
23:00
14°
991.5 hPa 0.9 mm
82%
12.9°
6
Windvlaag: -0.6 m/s
90%
 07:02     18:25    Daglengte: 11:23 Zaterdag 03 Okt
00:00
14°
990.9 hPa 0.8 mm
82%
13.0°
6
Windvlaag: -0.7 m/s
91%
01:00
15°
990.3 hPa 1.3 mm
82%
13.2°
6
Windvlaag: -0.8 m/s
91%
02:00
15°
989.8 hPa 1.5 mm
82%
13.1°
6
Windvlaag: -0.8 m/s
89%
03:00
15°
989.5 hPa 1.5 mm
82%
13.0°
7
Windvlaag: -1.4 m/s
90%
04:00
14°
989.1 hPa 2.0 mm
82%
13.1°
6
Windvlaag: -1.6 m/s
89%
05:00
14°
989.0 hPa 1.9 mm
82%
13.2°
6
Windvlaag: -1.3 m/s
91%
06:00
14°
988.6 hPa 3.6 mm
71%
13.3°
6
Windvlaag: -1.6 m/s
88%
07:00
14°
988.3 hPa 4.3 mm
38%
13.2°
5
Windvlaag: -1 m/s
91%
08:00
14°
988.1 hPa 3.8 mm
76%
13.4°
5
Windvlaag: -1 m/s
91%
09:00
14°
987.6 hPa 5.9 mm
81%
13.5°
5
Windvlaag: -1.1 m/s
91%
10:00
14°
987.5 hPa 4.9 mm
82%
13.6°
4
Windvlaag: -0.9 m/s
91%
11:00
14°
986.9 hPa 5.5 mm
82%
13.7°
3
Windvlaag: 0.6 m/s
91%
12:00
14°
986.4 hPa 5.8 mm
82%
13.1°
4
Windvlaag: 1.2 m/s
89%
13:00
14°
985.9 hPa 5.7 mm
82%
12.4°
5
Windvlaag: 2.6 m/s
84%
14:00
14°
985.6 hPa 5.7 mm
82%
11.7°
5
Windvlaag: 4 m/s
87%
15:00
13°
985.3 hPa 7.5 mm
39%
11.1°
6
Windvlaag: 5.3 m/s
83%
16:00
13°
985.5 hPa
100%
11.0°
6
Windvlaag: 5.9 m/s
93%
17:00
12°
985.3 hPa 7.3 mm
100%
10.2°
5
Windvlaag: 5.6 m/s
92%
18:00
12°
985.2 hPa
100%
9.9°
5
Windvlaag: 4.7 m/s
88%
19:00
12°
985.4 hPa
100%
9.6°
4
Windvlaag: 4.4 m/s
70%
20:00
11°
985.0 hPa
97%
9.0°
4
Windvlaag: 3.2 m/s
23%
21:00
10°
984.7 hPa
32%
8.6°
4
Windvlaag: 2.5 m/s
29%
22:00
10°
984.3 hPa
22%
8.7°
4
Windvlaag: 2.8 m/s
37%
23:00
10°
983.7 hPa
21%
8.6°
3
Windvlaag: 2.1 m/s
37%
 07:04     18:23    Daglengte: 11:19 Zondag 04 Okt
00:00
11°
983.1 hPa
24%
8.8°
4
Windvlaag: 2.5 m/s
58%
01:00
11°
982.4 hPa
31%
9.2°
4
Windvlaag: 2.4 m/s
94%
02:00
10°
981.8 hPa
40%
9.2°
3
Windvlaag: 2 m/s
90%
03:00
11°
981.2 hPa 7.5 mm
95%
9.5°
3
Windvlaag: 1.7 m/s
98%
04:00
11°
980.6 hPa 5.5 mm
100%
9.4°
2
Windvlaag: 1.2 m/s
97%
05:00
10°
980.6 hPa 5.7 mm
100%
9.1°
3
Windvlaag: 0.8 m/s
90%
06:00
10°
980.6 hPa
100%
9.3°
3
Windvlaag: 0.9 m/s
86%
07:00
10°
Voelt als: 8.0°
980.8 hPa
94%
9.1°
4
Windvlaag: 1.9 m/s
91%
08:00
10°
981.4 hPa 12.7 mm
100%
9.1°
5
Windvlaag: 5 m/s
93%
09:00
10°
981.7 hPa 12.6 mm
85%
9.2°
5
Windvlaag: 7 m/s
86%
10:00
11°
982.1 hPa
23%
9.2°
5
Windvlaag: 7.8 m/s
81%
11:00
12°
982.4 hPa
21%
9.8°
6
Windvlaag: 10.2 m/s
82%
12:00
12°
982.7 hPa
21%
10.1°
6
Windvlaag: 11.8 m/s
85%
13:00
13°
983.1 hPa
21%
10.4°
6
Windvlaag: 6.2 m/s
87%
14:00
13°
983.5 hPa
30%
10.3°
6
Windvlaag: 18 m/s
77% warningclass
15:00
12°
984.2 hPa
21%
10.0°
6
Windvlaag: 17.2 m/s
67% warningclass
16:00
12°
984.8 hPa
22%
9.6°
6
Windvlaag: 17.1 m/s
60% warningclass
17:00
12°
985.4 hPa
21%
9.1°
6
Windvlaag: 14 m/s
48%
18:00
11°
986.1 hPa
23%
8.5°
6
Windvlaag: 13 m/s
37%
19:00
11°
986.9 hPa
25%
8.0°
6
Windvlaag: 1.8 m/s
24%
Temp/Neerslag /Baro Onweer/Dauwpunt
    Temp Baro Neerslag Dauwpunt Wind Bewolking  
 06:59     18:30    Daglengte: 11:31 Vandaag
22:00
Voelt als: 7.9°
995.8 hPa   8.0°
2
39%
 07:01     18:28    Daglengte: 11:27 Morgen
01:00
Voelt als: 6.4°
994.3 hPa   6.5°
2
39%
04:00
Voelt als: 6.9°
993.0 hPa   6.4°
3
55%
07:00
10°
992.5 hPa   7.3°
5
76%
10:00
13°
992.5 hPa   9.2°
7
90%
13:00
14°
992.9 hPa 0.2 mm 10.3°
7
87%
16:00
14°
992.2 hPa 0.2 mm 10.8°
7
88%
19:00
14°
993.0 hPa 0.7 mm 11.3°
6
91%
22:00
14°
992.2 hPa 2.0 mm 12.7°
5
91%
 07:02     18:25    Daglengte: 11:23 Zaterdag 03 Okt
01:00
15°
990.3 hPa 2.9 mm 13.2°
6
91%
04:00
14°
989.1 hPa 5.1 mm 13.1°
6
89%
07:00
14°
988.3 hPa 9.7 mm 13.2°
5
91%
10:00
14°
987.5 hPa 14.6 mm 13.6°
4
91%
13:00
14°
985.9 hPa 17.0 mm 12.4°
5
84%
16:00
13°
985.5 hPa 13.2 mm 11.0°
6
93%
19:00
12°
985.4 hPa 7.3 mm 9.6°
4
70%
22:00
10°
984.3 hPa   8.7°
4
37%
 07:04     18:23    Daglengte: 11:19 Zondag 04 Okt
01:00
11°
982.4 hPa   9.2°
4
94%
04:00
11°
980.6 hPa 13.0 mm 9.4°
2
97%
07:00
10°
Voelt als: 8.0°
980.8 hPa 5.7 mm 9.1°
4
91%
10:00
11°
982.1 hPa 25.3 mm 9.2°
5
81%
13:00
13°
983.1 hPa   10.4°
6
87%
16:00
12°
984.8 hPa   9.6°
6
60% warningclass
19:00
11°
986.9 hPa   8.0°
6
24%
22:00
11°
988.1 hPa 13.4 mm 8.1°
5
59%
 07:06     18:21    Daglengte: 11:15 Maandag 05 Okt
01:00
11°
989.0 hPa 13.4 mm 8.2°
5
74%
04:00
11°
988.8 hPa 13.4 mm 8.7°
5
83%
07:00
11°
988.7 hPa 13.4 mm 9.2°
6
91%
10:00
12°
989.7 hPa 14.4 mm 10.7°
6
83%
13:00
14°
990.8 hPa 14.8 mm 12.0°
5
75%
16:00
12°
991.7 hPa 14.9 mm 11.1°
4
69%
19:00
11°
992.7 hPa 15.9 mm 10.1°
3
62%
22:00
10°
992.8 hPa 16.1 mm 9.1°
3
53%
 07:08     18:18    Daglengte: 11:10 Dinsdag 06 Okt
01:00
Voelt als: 7.8°
992.8 hPa 16.1 mm 8.1°
2
44%
04:00
Voelt als: 8.5°
992.9 hPa 16.1 mm 8.6°
2
68%
07:00
Voelt als: 9.0°
992.9 hPa 16.1 mm 9.1°
2
92%
10:00
12°
993.6 hPa 16.1 mm 9.9°
2
82%
13:00
14°
994.3 hPa 16.1 mm 10.4°
3
73%
16:00
13°
995.3 hPa 16.5 mm 10.4°
3
62%
19:00
11°
996.4 hPa 17.9 mm 10.1°
2
50%
22:00
10°
996.8 hPa 18.0 mm 9.3°
3
34%
 07:09     18:16    Daglengte: 11:07 Woensdag 07 Okt
01:00
Voelt als: 7.7°
997.2 hPa 18.0 mm 8.6°
3
17%
04:00
Voelt als: 6.9°
997.3 hPa 18.0 mm 8.2°
3
54%
07:00
Voelt als: 6.3°
997.4 hPa 18.0 mm 7.8°
3
92%
10:00
11°
998.2 hPa 18.0 mm 8.7°
4
87%
13:00
13°
998.9 hPa 18.0 mm 9.4°
4
82%
16:00
13°
999.4 hPa 18.0 mm 9.4°
3
69%
19:00
11°
999.9 hPa 18.1 mm 9.3°
2
56%
22:00
10°
1000.8 hPa 19.4 mm 9.1°
3
48%
 07:11     18:14    Daglengte: 11:03 Donderdag 08 Okt
01:00
Voelt als: 7.7°
1001.7 hPa 19.5 mm 8.6°
3
40%
04:00
Voelt als: 7.6°
1002.5 hPa 19.5 mm 8.7°
3
66%
07:00
Voelt als: 7.3°
1003.4 hPa 19.5 mm 8.6°
3
92%
10:00
11°
1004.1 hPa 19.5 mm 9.7°
4
90%
13:00
13°
1004.7 hPa 19.5 mm 10.8°
4
89%
16:00
12°
1005.2 hPa 19.5 mm 9.9°
4
84%
19:00
10°
1005.7 hPa 39.0 mm 8.9°
3
79%
 07:13     18:12    Daglengte: 10:59 Vrijdag 09 Okt
01:00
Voelt als: 6.2°
1005.9 hPa 39.0 mm 7.6°
5
92%
07:00
Voelt als: 2.9°
1007.1 hPa 39.9 mm 5.1°
5
0%
13:00
12°
1007.8 hPa 40.0 mm 4.8°
5
32%
19:00
Voelt als: 6.7°
1007.4 hPa 40.0 mm 4.8°
4
34%
 07:15     18:09    Daglengte: 10:54 Zaterdag 10 Okt
01:00
Voelt als: 4.5°
1006.3 hPa 40.0 mm 4.7°
5
92%
07:00
Voelt als: 5.5°
1005.8 hPa 40.0 mm 7.8°
7
92%
13:00
11°
1011.2 hPa 40.0 mm 9.1°
7
91%
19:00
11°
1015.8 hPa 40.3 mm 7.0°
3
79%
 07:16     18:07    Daglengte: 10:51 Zondag 11 Okt
01:00
Voelt als: 8.3°
1016.6 hPa 40.4 mm 6.4°
2
1%
07:00
Voelt als: 6.1°
1018.1 hPa 40.4 mm 6.7°
3
1%
13:00
13°
1021.7 hPa 41.4 mm 8.3°
7
0%
  CAPE Lifted Index Hail Supercell Tornado SRH 3km CL BTM PRES CL TOP PRES Swiss DWD icon SMHI TS
 06:59     18:30    Daglengte: 11:31 Vandaag
20:00 192 J/kg 1.6 K 0 % 0 % 0 % 0 m²/s² 0 0 8.05 3
21:00 203 J/kg 2.4 K 0 % 0 % 0 % 0 m²/s² 0 0 8.25 1
22:00 209 J/kg 2.9 K 0 % 0 % 0 % 0 m²/s² 0 0 8 0
23:00 146 J/kg 3.1 K 0 % 0 % 0 % 0 m²/s² 0 0 7.06 2
 07:01     18:28    Daglengte: 11:27 Morgen
00:00 72 J/kg 3.7 K 0 % 0 % 0 % 0 m²/s² 0 0 6.76 2
01:00 0 J/kg 5.0 K 0 % 0 % 0 % 0 m²/s² 0 0 7.46 1
02:00 0 J/kg 5.2 K 0 % 0 % 0 % 0 m²/s² 0 0 7.33 3
03:00 1 J/kg 4.7 K 0 % 0 % 0 % 0 m²/s² 0 0 6.98 3
04:00 7 J/kg 4.4 K 0 % 0 % 0 % 0 m²/s² 0 0 6.47 3
05:00 65 J/kg 5.2 K 0 % 0 % 0 % 0 m²/s² 0 0 6.85 2
06:00 64 J/kg 5.8 K 0 % 0 % 0 % 0 m²/s² 0 0 7.18 3
07:00 59 J/kg 5.9 K 0 % 0 % 0 % 0 m²/s² 0 0 7.55 3
08:00 60 J/kg 5.8 K 0 % 0 % 0 % 0 m²/s² 0 0 7.48 3
09:00 81 J/kg 5.4 K 0 % 0 % 0 % 0 m²/s² 0 0 6.78 3
10:00 67 J/kg 5.2 K 0 % 0 % 0 % 0 m²/s² 0 0 6.58 3
11:00 85 J/kg 5.6 K 0 % 0 % 0 % 0 m²/s² 0 0 6.41 3
12:00 71 J/kg 5.8 K 0 % 0 % 0 % 0 m²/s² 0 0 6.13 3
13:00 64 J/kg 5.3 K 0 % 0 % 0 % 0 m²/s² 0 0 5.54 3
14:00 64 J/kg 5.3 K 0 % 0 % 0 % 0 m²/s² 0 0 5.54 3
15:00 43 J/kg 5.5 K 0 % 0 % 0 % 0 m²/s² 0 0 5.89 3
16:00 60 J/kg 5.7 K 0 % 0 % 0 % 0 m²/s² 0 0 6.21 61
17:00 40 J/kg 5.4 K 0 % 0 % 0 % 0 m²/s² 0 0 5.94 3
18:00 60 J/kg 4.9 K 0 % 0 % 0 % 0 m²/s² 0 0 5.14 61
19:00 39 J/kg 4.2 K 0 % 0 % 0 % 0 m²/s² 0 0 4.5 61
20:00 57 J/kg 3.7 K 0 % 0 % 0 % 0 m²/s² 0 0 3.88 61
21:00 105 J/kg 2.8 K 0 % 0 % 0 % 0 m²/s² 0 0 2.98 61
22:00 102 J/kg 2.5 K 0 % 0 % 0 % 0 m²/s² 0 0 2.68 61
23:00 59 J/kg 2.9 K 0 % 0 % 0 % 0 m²/s² 0 0 3.14 80
 07:02     18:25    Daglengte: 11:23 Zaterdag 03 Okt
00:00 60 J/kg 2.4 K 0 % 0 % 0 % 0 m²/s² 0 0 2.49 61
01:00 63 J/kg 2.3 K 0 % 0 % 0 % 0 m²/s² 0 0 2.33 61
02:00 39 J/kg 3.2 K 0 % 0 % 0 % 0 m²/s² 0 0 3.29 61
03:00 23 J/kg 2.8 K 0 % 0 % 0 % 0 m²/s² 0 0 2.89 61
04:00 15 J/kg 3.0 K 0 % 0 % 0 % 0 m²/s² 0 0 3.09 61
05:00 12 J/kg 2.5 K 0 % 0 % 0 % 0 m²/s² 0 0 2.5 61
06:00 13 J/kg 1.6 K 0 % 0 % 0 % 0 m²/s² 0 0 1.6 3
07:00 13 J/kg 1.9 K 0 % 0 % 0 % 0 m²/s² 0 0 1.9 3
08:00 19 J/kg 3.0 K 0 % 0 % 0 % 0 m²/s² 0 0 3 80
09:00 0 J/kg 4.1 K 0 % 0 % 0 % 0 m²/s² 0 0 4.19 3
10:00 14 J/kg 5.3 K 0 % 0 % 0 % 0 m²/s² 0 0 5.39 61
11:00 29 J/kg 5.0 K 0 % 0 % 0 % 0 m²/s² 0 0 5.33 61
12:00 110 J/kg 3.3 K 0 % 0 % 0 % 0 m²/s² 0 0 5.19 80
13:00 86 J/kg 2.4 K 0 % 0 % 0 % 0 m²/s² 0 0 4.47 61
14:00 92 J/kg 1.7 K 0 % 0 % 0 % 0 m²/s² 0 0 6.02 80
15:00 127 J/kg 0.5 K 0 % 0 % 0 % 0 m²/s² 0 0 5.96 3
16:00 88 J/kg 0.8 K 0 % 0 % 0 % 0 m²/s² 0 0 5.84 3
17:00 27 J/kg 2.1 K 0 % 0 % 0 % 0 m²/s² 0 0 6.39 80
18:00 0 J/kg 3.3 K 0 % 0 % 0 % 0 m²/s² 0 0 6.72 61
19:00 0 J/kg 3.0 K 0 % 0 % 0 % 0 m²/s² 0 0 5.61 61
20:00 4 J/kg 2.6 K 0 % 0 % 0 % 0 m²/s² 0 0 4.58 3
21:00 10 J/kg 2.1 K 0 % 0 % 0 % 0 m²/s² 0 0 3.72 3
22:00 0 J/kg 1.5 K 0 % 0 % 0 % 0 m²/s² 0 0 3.06 1
23:00 0 J/kg 1.6 K 0 % 0 % 0 % 0 m²/s² 0 0 3.31 1
 07:04     18:23    Daglengte: 11:19 Zondag 04 Okt
00:00 0 J/kg 3.1 K 0 % 0 % 0 % 0 m²/s² 0 0 4.48 2
01:00 2 J/kg 5.4 K 0 % 0 % 0 % 0 m²/s² 0 0 5.85 3
02:00 2 J/kg 6.4 K 0 % 0 % 0 % 0 m²/s² 0 0 6.76 3
03:00 3 J/kg 6.8 K 0 % 0 % 0 % 0 m²/s² 0 0 7.16 3
04:00 12 J/kg 7.0 K 0 % 0 % 0 % 0 m²/s² 0 0 7.33 80
05:00 0 J/kg 7.1 K 0 % 0 % 0 % 0 m²/s² 0 0 7.4 80
06:00 0 J/kg 6.8 K 0 % 0 % 0 % 0 m²/s² 0 0 7.16 3
07:00 0 J/kg 6.5 K 0 % 0 % 0 % 0 m²/s² 0 0 6.83 3
08:00 0 J/kg 6.1 K 0 % 0 % 0 % 0 m²/s² 0 0 6.55 61
09:00 3 J/kg 5.5 K 0 % 0 % 0 % 0 m²/s² 0 0 6.25 3
10:00 4 J/kg 5.9 K 0 % 0 % 0 % 0 m²/s² 0 0 6.47 3
11:00 1 J/kg 5.5 K 0 % 0 % 0 % 0 m²/s² 0 0 6.01 3
12:00 0 J/kg 5.4 K 0 % 0 % 0 % 0 m²/s² 0 0 6.3 3
13:00 2 J/kg 4.5 K 0 % 0 % 0 % 0 m²/s² 0 0 5.34 3
14:00 2 J/kg 3.6 K 0 % 0 % 0 % 0 m²/s² 0 0 4.68 2
15:00 0 J/kg 3.0 K 0 % 0 % 0 % 0 m²/s² 0 0 3.9 3
16:00 1 J/kg 2.7 K 0 % 0 % 0 % 0 m²/s² 0 0 3.45 2
17:00 2 J/kg 2.0 K 0 % 0 % 0 % 0 m²/s² 0 0 2.63 2
18:00 0 J/kg 1.3 K 0 % 0 % 0 % 0 m²/s² 0 0 1.78 2
19:00 0 J/kg 1.9 K 0 % 0 % 0 % 0 m²/s² 0 0 2.53 2
Temp Baro Wind Neerslag
  EWN Forecast EWN WRFDA DWD ICON FMI HIRLAM MET Norway GFS
 06:59     18:30    Daglengte: 11:31 Vandaag
22:00 8.9° 995.8 hPa 2.0 m/s 0.0 mm 10.6° 994.7 hPa 2.3 m/s 0.8 mm 9.5° 996.1 hPa 2.0 m/s -1.4 mm 8.6° 995.9 hPa 1.5 m/s 0.0 mm 8.8° 995.8 hPa 2.1 m/s 10.0° 995.4 hPa 2.4 m/s
 07:01     18:28    Daglengte: 11:27 Morgen
01:00 7.6° 994.3 hPa 2.0 m/s 0.0 mm 8.7° 992.5 hPa 2.8 m/s 0.8 mm 8.4° 995.6 hPa 1.9 m/s 0.0 mm 6.3° 994.9 hPa 1.6 m/s 0.0 mm 7.7° 994.2 hPa 2.2 m/s 9.1° 994.1 hPa 2.7 m/s
04:00 8.7° 993.0 hPa 3.0 m/s 0.0 mm 8.8° 991.6 hPa 3.5 m/s 0.8 mm 8.8° 994.7 hPa 2.3 m/s 0.0 mm 7.3° 993.1 hPa 2.3 m/s 0.0 mm 9.7° 992.5 hPa 3.8 m/s 10.0° 993.1 hPa 4.2 m/s
07:00 10.5° 992.5 hPa 4.9 m/s 0.0 mm 9.9° 991.0 hPa 4.7 m/s 0.8 mm 10.5° 994.4 hPa 3.5 m/s 0.0 mm 9.1° 992.9 hPa 3.4 m/s 0.0 mm 11.8° 991.7 hPa 5.6 m/s 11.8° 992.8 hPa 6.3 m/s
10:00 13.1° 992.5 hPa 7.2 m/s 0.0 mm 13.6° 991.2 hPa 6.9 m/s 0.8 mm 13.2° 995.2 hPa 6.2 m/s 0.0 mm 13.2° 993.2 hPa 6.6 m/s 0.0 mm 13.2° 992.0 hPa 7.5 m/s 13.8° 993.1 hPa 8.4 m/s
13:00 13.6° 992.9 hPa 7.4 m/s 0.2 mm 15.8° 991.2 hPa 9.8 m/s 0.8 mm 14.4° 994.6 hPa 7.2 m/s 0.0 mm 13.5° 993.2 hPa 5.9 m/s 0.0 mm 13.0° 992.4 hPa 7.2 m/s 14.4° 993.1 hPa 8.0 m/s
16:00 14.3° 992.2 hPa 6.5 m/s 0.2 mm 15.3° 990.6 hPa 9.7 m/s 0.8 mm 14.5° 993.9 hPa 5.9 m/s 0.1 mm 14.2° 992.6 hPa 6.6 m/s 0.0 mm 14.4° 992.1 hPa 6.1 m/s 14.5° 992.3 hPa 7.6 m/s
19:00 13.8° 993.0 hPa 5.7 m/s 0.7 mm 14.3° 990.2 hPa 8.6 m/s 0.8 mm 13.9° 994.5 hPa 4.9 m/s 0.3 mm 14.2° 992.9 hPa 5.6 m/s 0.0 mm 13.7° 992.9 hPa 5.3 m/s 13.8° 992.2 hPa 7.2 m/s
22:00 14.2° 992.2 hPa 5.4 m/s 2.0 mm 14.4° 989.7 hPa 7.4 m/s 3.6 mm 14.2° 994.0 hPa 5.1 m/s 1.1 mm 14.7° 992.2 hPa 5.0 m/s 0.0 mm 14.2° 992.1 hPa 6.2 m/s 14.3° 992.0 hPa 7.7 m/s
 07:02     18:25    Daglengte: 11:23 Zaterdag 03 Okt
01:00 14.5° 990.3 hPa 5.9 m/s 2.9 mm 14.6° 986.7 hPa 7.9 m/s 13.9 mm 14.3° 992.9 hPa 4.8 m/s 0.9 mm 15.0° 989.9 hPa 5.7 m/s 0.0 mm 14.6° 990.1 hPa 7.0 m/s 14.9° 991.1 hPa 6.6 m/s
04:00 14.5° 989.1 hPa 6.2 m/s 5.1 mm 14.5° 984.2 hPa 7.9 m/s 26.2 mm 14.7° 991.4 hPa 5.7 m/s 0.6 mm 15.2° 987.6 hPa 6.4 m/s 0.0 mm 14.4° 989.4 hPa 6.2 m/s 14.6° 990.2 hPa 6.9 m/s
07:00 14.3° 988.3 hPa 5.2 m/s 9.7 mm 14.4° 981.6 hPa 6.5 m/s 46.5 mm 14.7° 990.3 hPa 5.2 m/s 0.1 mm 15.2° 986.7 hPa 5.1 m/s 0.0 mm 14.0° 988.9 hPa 5.1 m/s 14.0° 989.6 hPa 6.3 m/s
10:00 14.5° 987.5 hPa 4.4 m/s 14.6 mm 12.4° 981.9 hPa 5.4 m/s 84.8 mm 14.5° 988.7 hPa 4.8 m/s 0.8 mm 15.3° 985.1 hPa 4.1 m/s 0.0 mm 14.7° 988.3 hPa 3.7 m/s 14.6° 989.5 hPa 5.6 m/s
13:00 14.2° 985.9 hPa 4.7 m/s 17.0 mm 15.2° 979.7 hPa 7.5 m/s 105.6 mm 14.5° 986.6 hPa 3.7 m/s 1.3 mm 14.2° 983.2 hPa 6.8 m/s 0.0 mm 13.1° 987.9 hPa 4.3 m/s 14.8° 988.3 hPa 3.9 m/s
16:00 12.9° 985.5 hPa 6.1 m/s 13.2 mm 15.1° 978.7 hPa 9.2 m/s 106.5 mm 13.7° 985.1 hPa 6.2 m/s 0.6 mm 11.9° 987.3 hPa 3.6 m/s 12.1° 986.3 hPa 6.0 m/s
19:00 11.7° 985.4 hPa 4.4 m/s 7.3 mm 12.5° 977.3 hPa 6.7 m/s 106.5 mm 12.1° 985.0 hPa 4.9 m/s 0.4 mm 11.6° 986.4 hPa 4.0 m/s 11.9° 984.7 hPa 3.8 m/s
22:00 10.4° 984.3 hPa 3.6 m/s 0.0 mm 10.5° 976.3 hPa 3.7 m/s 106.5 mm 11.7° 984.4 hPa 4.3 m/s 0.0 mm 9.9° 985.3 hPa 2.5 m/s 11.0° 984.3 hPa 3.0 m/s
 07:04     18:23    Daglengte: 11:19 Zondag 04 Okt
01:00 10.7° 982.4 hPa 3.5 m/s 0.0 mm 8.9° 976.2 hPa 5.2 m/s 106.5 mm 12.2° 982.9 hPa 4.9 m/s 0.0 mm 10.7° 983.3 hPa 2.5 m/s 10.2° 983.2 hPa 2.1 m/s
04:00 10.5° 980.6 hPa 1.9 m/s 13.0 mm 8.7° 976.3 hPa 7.2 m/s 107.9 mm 12.1° 980.9 hPa 4.4 m/s 0.4 mm 10.5° 981.3 hPa 1.0 m/s 10.2° 981.8 hPa 2.8 m/s
07:00 9.9° 980.8 hPa 3.7 m/s 5.7 mm 8.7° 976.8 hPa 9.6 m/s 110.1 mm 11.7° 980.9 hPa 4.1 m/s 0.2 mm 9.7° 981.7 hPa 2.1 m/s 9.4° 980.5 hPa 1.5 m/s
10:00 10.8° 982.1 hPa 5.3 m/s 25.3 mm 9.0° 978.6 hPa 11.3 m/s 112.1 mm 11.1° 983.0 hPa 5.1 m/s 0.1 mm 11.5° 982.1 hPa 3.1 m/s 11.6° 980.9 hPa 0.9 m/s
13:00 12.7° 983.1 hPa 5.9 m/s 0.0 mm 10.0° 981.1 hPa 11.3 m/s 112.6 mm 13.1° 985.8 hPa 5.4 m/s 0.0 mm 13.3° 982.5 hPa 4.1 m/s 14.4° 981.2 hPa 3.5 m/s
16:00 12.2° 984.8 hPa 6.3 m/s 0.0 mm 10.3° 983.6 hPa 11.1 m/s 112.8 mm 14.3° 986.1 hPa 6.7 m/s -0.0 mm 12.0° 984.6 hPa 5.0 m/s 13.3° 981.9 hPa 3.1 m/s
19:00 10.8° 986.9 hPa 6.1 m/s 0.0 mm 10.0° 986.1 hPa 8.5 m/s 113.2 mm 11.8° 987.9 hPa 5.3 m/s 0.0 mm 10.7° 986.8 hPa 6.0 m/s 11.4° 983.0 hPa 4.7 m/s
22:00 11.0° 988.1 hPa 5.2 m/s 13.4 mm 11.0° 988.4 hPa 5.2 m/s 10.5° 985.2 hPa 4.6 m/s 13.4 mm
 07:06     18:21    Daglengte: 11:15 Maandag 05 Okt
01:00 11.1° 989.0 hPa 4.7 m/s 13.4 mm 11.2° 989.2 hPa 4.8 m/s 10.2° 986.3 hPa 3.9 m/s 13.4 mm
04:00 11.1° 988.8 hPa 5.4 m/s 13.4 mm 11.2° 989.0 hPa 5.7 m/s 10.2° 986.8 hPa 3.0 m/s 13.4 mm
07:00 11.2° 988.7 hPa 6.2 m/s 13.4 mm 11.2° 988.8 hPa 6.5 m/s 10.6° 987.5 hPa 3.1 m/s 13.4 mm
10:00 12.4° 989.7 hPa 5.9 m/s 14.4 mm 12.4° 989.8 hPa 5.6 m/s 12.1° 988.3 hPa 8.7 m/s 14.4 mm
13:00 13.6° 990.8 hPa 5.0 m/s 14.8 mm 13.7° 990.8 hPa 4.7 m/s 12.2° 990.7 hPa 8.9 m/s 14.8 mm
16:00 12.5° 991.7 hPa 4.3 m/s 14.9 mm 12.5° 991.6 hPa 3.9 m/s 12.3° 992.3 hPa 8.2 m/s 14.9 mm
19:00 11.3° 992.7 hPa 3.4 m/s 15.9 mm 11.3° 992.5 hPa 3.1 m/s 11.4° 994.4 hPa 6.1 m/s 15.9 mm
22:00 10.1° 992.8 hPa 2.7 m/s 16.1 mm 10.0° 992.5 hPa 2.4 m/s 11.3° 996.2 hPa 6.9 m/s 16.1 mm
 07:08     18:18    Daglengte: 11:10 Dinsdag 06 Okt
01:00 8.8° 992.8 hPa 2.0 m/s 16.1 mm 8.7° 992.4 hPa 1.6 m/s 10.3° 997.5 hPa 6.3 m/s 16.1 mm
04:00 9.2° 992.9 hPa 1.8 m/s 16.1 mm 9.1° 992.4 hPa 1.5 m/s 10.0° 997.9 hPa 5.3 m/s 16.1 mm
07:00 9.5° 992.9 hPa 1.5 m/s 16.1 mm 9.6° 992.4 hPa 1.3 m/s 8.1° 998.2 hPa 3.8 m/s 16.1 mm
10:00 11.8° 993.6 hPa 2.3 m/s 16.1 mm 11.8° 993.2 hPa 2.1 m/s 11.5° 998.0 hPa 3.6 m/s 16.1 mm
13:00 14.1° 994.3 hPa 3.0 m/s 16.1 mm 14.1° 994.0 hPa 3.0 m/s 14.4° 998.0 hPa 2.7 m/s 16.1 mm
16:00 12.8° 995.3 hPa 2.7 m/s 16.5 mm 12.7° 995.1 hPa 2.8 m/s 13.8° 997.8 hPa 2.1 m/s 16.5 mm
19:00 11.3° 996.4 hPa 2.5 m/s 17.9 mm 11.3° 996.2 hPa 2.5 m/s 11.5° 998.9 hPa 2.4 m/s 17.9 mm
22:00 10.2° 996.8 hPa 2.7 m/s 18.0 mm 10.2° 996.5 hPa 2.6 m/s 9.9° 1000.5 hPa 3.3 m/s 18.0 mm
 07:09     18:16    Daglengte: 11:07 Woensdag 07 Okt
01:00 9.3° 997.2 hPa 2.9 m/s 18.0 mm 9.2° 996.8 hPa 2.7 m/s 10.0° 1001.8 hPa 5.2 m/s 18.0 mm
04:00 8.7° 997.3 hPa 3.1 m/s 18.0 mm 8.8° 996.8 hPa 2.9 m/s 8.1° 1003.0 hPa 5.1 m/s 18.0 mm
07:00 8.3° 997.4 hPa 3.3 m/s 18.0 mm 8.4° 996.8 hPa 3.1 m/s 7.6° 1004.6 hPa 5.2 m/s 18.0 mm
10:00 10.9° 998.2 hPa 3.7 m/s 18.0 mm 10.9° 997.5 hPa 3.5 m/s 10.0° 1005.7 hPa 6.5 m/s 18.0 mm
13:00 13.4° 998.9 hPa 4.0 m/s 18.0 mm 13.5° 998.2 hPa 3.8 m/s 12.8° 1006.3 hPa 6.3 m/s 18.0 mm
16:00 12.6° 999.4 hPa 3.1 m/s 18.0 mm 12.5° 998.8 hPa 2.9 m/s 13.4° 1006.2 hPa 5.6 m/s 18.0 mm
19:00 11.4° 999.9 hPa 2.1 m/s 18.1 mm 11.5° 999.4 hPa 2.0 m/s 10.5° 1005.5 hPa 2.7 m/s 18.1 mm
22:00 10.5° 1000.8 hPa 2.6 m/s 19.4 mm 10.4° 1000.5 hPa 2.3 m/s 11.4° 1004.4 hPa 5.5 m/s 19.4 mm
 07:11     18:14    Daglengte: 11:03 Donderdag 08 Okt
01:00 9.3° 1001.7 hPa 3.0 m/s 19.5 mm 9.3° 1001.5 hPa 2.6 m/s 9.8° 1003.5 hPa 7.5 m/s 19.5 mm
04:00 9.3° 1002.5 hPa 3.1 m/s 19.5 mm 9.3° 1002.3 hPa 2.8 m/s 9.0° 1004.7 hPa 6.0 m/s 19.5 mm
07:00 9.1° 1003.4 hPa 3.2 m/s 19.5 mm 9.3° 1003.1 hPa 3.0 m/s 7.0° 1006.4 hPa 5.7 m/s 19.5 mm
10:00 10.8° 1004.1 hPa 3.7 m/s 19.5 mm 10.9° 1003.8 hPa 3.4 m/s 9.2° 1007.8 hPa 7.1 m/s 19.5 mm
13:00 12.5° 1004.7 hPa 4.1 m/s 19.5 mm 12.6° 1004.4 hPa 3.8 m/s 11.5° 1008.6 hPa 7.5 m/s 19.5 mm
16:00 11.5° 1005.2 hPa 3.7 m/s 19.5 mm 11.5° 1004.8 hPa 3.5 m/s 12.0° 1009.1 hPa 6.5 m/s 19.5 mm
19:00 10.3° 1005.7 hPa 3.3 m/s 19.5 mm 10.4° 1005.3 hPa 3.2 m/s 9.0° 1009.9 hPa 4.0 m/s 19.5 mm
 07:13     18:12    Daglengte: 10:59 Vrijdag 09 Okt
01:00 8.9° 1005.9 hPa 5.1 m/s 19.5 mm 9.1° 1005.5 hPa 5.3 m/s 6.8° 1010.5 hPa 3.5 m/s 19.5 mm
07:00 6.3° 1007.1 hPa 5.1 m/s 20.0 mm 6.3° 1006.7 hPa 5.2 m/s 6.1° 1011.3 hPa 4.1 m/s 20.0 mm
13:00 11.7° 1007.8 hPa 5.1 m/s 20.0 mm 11.7° 1007.1 hPa 5.3 m/s 11.8° 1015.0 hPa 3.2 m/s 20.0 mm
19:00 8.9° 1007.4 hPa 3.9 m/s 20.0 mm 8.9° 1006.6 hPa 4.1 m/s 8.9° 1016.4 hPa 2.3 m/s 20.0 mm
 07:15     18:09    Daglengte: 10:54 Zaterdag 10 Okt
01:00 7.6° 1006.3 hPa 5.3 m/s 20.0 mm 7.7° 1005.3 hPa 5.5 m/s 6.7° 1017.6 hPa 3.5 m/s 20.0 mm
07:00 8.8° 1005.8 hPa 6.6 m/s 20.0 mm 9.0° 1004.8 hPa 6.8 m/s 6.2° 1017.2 hPa 4.2 m/s 20.0 mm
13:00 11.3° 1011.2 hPa 7.3 m/s 20.0 mm 11.1° 1010.6 hPa 7.5 m/s 13.0° 1017.3 hPa 5.1 m/s 20.0 mm
19:00 10.5° 1015.8 hPa 3.3 m/s 20.2 mm 10.5° 1015.8 hPa 3.4 m/s 10.8° 1016.2 hPa 2.3 m/s 20.2 mm
 07:16     18:07    Daglengte: 10:51 Zondag 11 Okt
01:00 8.8° 1016.6 hPa 1.6 m/s 20.2 mm 8.8° 1016.6 hPa 1.6 m/s 20.2 mm
07:00 7.7° 1018.1 hPa 2.5 m/s 20.2 mm 7.7° 1018.1 hPa 2.5 m/s 20.2 mm
13:00 13.4° 1021.7 hPa 7.0 m/s 21.1 mm 13.4° 1021.7 hPa 7.0 m/s 21.1 mm